Regional Weather Roundup
Issued by NWS New Orleans/Baton Rouge, LA

Home | Current Version | Previous Version | Graphics & Text | Print | Product List | Glossary On
Versions: 1 2 3 4 5 6 7 8 9 10 11 12 13 14 15 16 17 18 19 20 21 22 23 24 25 26 27 28 29 30 31 32 33 34 35 36 37 38 39 40 41 42 43 44 45 46 47 48 49 50
783
ASUS44 KLIX 241505
RWRLIX
NEW ORLEANS REGIONAL WEATHER ROUNDUP
NATIONAL WEATHER SERVICE NEW ORLEANS LA
900 AM CST MON NOV 24 2014

NOTE: "FAIR" INDICATES FEW OR NO CLOUDS BELOW 12,000 FEET WITH NO
      SIGNIFICANT WEATHER AND/OR OBSTRUCTIONS TO VISIBILITY.
      SKY/WX - SKY CONDITION AND SIGNIFICANT WEATHER.
      TMP - AIR TEMPERATURE.     DP    - DEWPOINT TEMPERATURE.
      RH  - RELATIVE HUMIDITY.   PRES  - PRESSURE.
      HI  - HEAT INDEX.          WCI   - WIND CHILL INDEX.

*  THESE STATIONS ARE NOT NWS OR FAA STATIONS AND ARE NOT UNDER
   NWS QUALITY CONTROL.

LAZ038-040-048-061>063-065>067-069-241600-
SOUTHEAST LOUISIANA

CITY           SKY/WX    TMP DP  RH WIND       PRES   REMARKS
N.O. AUDUBON     N/A     70  65  84 MISG        N/A
N.O. INTL ARPT MOSUNNY   68  62  81 NW13      29.87R
N.O. LAKEFRONT MOSUNNY   62  60  93 W10       29.88R
N.O. DOWNTOWN* PTSUNNY   68  61  77 W8        29.88R
SLIDELL        MOSUNNY   69  62  78 VRB6      29.86R
BATON ROUGE    SUNNY     58  47  66 NW7G17    29.93R
BOOTHVILLE     MOSUNNY   67  67 100 W9        29.88R FOG
BELLE CHASSE   PTSUNNY   70  63  78 NW6       29.86R HAZE
BOGALUSA*        N/A     67  54  62 MISG      29.90R
NEW ROADS*       N/A     55  46  69 NW14      29.95R
GONZALES*        N/A     63  54  74 NW10G18   29.91R
HAMMOND*       MOSUNNY   64  55  72 NW9G17    29.91R
HOUMA*         MOSUNNY   70  63  78 NW12      29.88R
PORT FOURCHON* MOSUNNY   66  66 100 NW10      29.91R FOG

$$

MSZ070-080>082-241600-
SOUTHERN MISSISSIPPI

CITY           SKY/WX    TMP DP  RH WIND       PRES   REMARKS
MCCOMB         MOSUNNY   56  48  74 NW10      29.92R
GULFPORT       MOSUNNY   70  63  78 W8        29.85R
BILOXI         SUNNY     71  66  84 W2        29.85R
PASCAGOULA     MOSUNNY   71  63  75 W7        29.85R
STENNIS ARPT*  MOSUNNY   70  61  73 NW8       29.86R

$$

COASTAL OBSERVATIONS
LAKE AND NEARSHORE STATIONS

STATION/POSITION TIME  TEMP    WIND        PRES    WAVE
                       AIR SEA DIR/SP/G            HT/PER
                 (UTC) (F)     (DEG/KT/KT) (MB)    (FT/S)
PASCAGOULA       1500   62     250/  4/  5 1010.1
WAVELAND YACHT   1500   69     280/  7/ 10 1009.9
GRAND ISLE       1500   64 65  290/  9/ 10 1011.9
SOUTHWEST PASS   1500   67                 1011.8
NEW CANAL        1500   65 56  270/  5/  7 1011.8
SHELL BEACH      1500   67 55  280/  9/ 11 1010.9

OFFSHORE STATIONS

STATION/POSITION TIME  TEMP    WIND        PRES    WAVE
                       AIR SEA DIR/SP/G            HT/PER
                 (UTC) (F)     (DEG/KT/KT) (MB)    (FT/S)
64 S DAUPHIN ISL 1356   73 72  260/ 10/ 12 1011.9    6/ 7

$$




USA.gov is the U.S. government's official web portal to all federal, state and local government web resources and services.